Location: Grust
(42.8833°N, 0.0333°W)
Time: 14:05:34
(UTC+00:00)

In-Cosmos 22 Rocket - Pass Details

Date: 25 October 2020
Orbit: 790 x 888 km, 81.2° (Epoch: 24 November)

Event Time Altitude Azimuth Distance (km) Brightness Sun altitude
Rises 18:35:06 0° 350° (N) 3,304 7.4 -17.7°
Reaches altitude 10° 18:37:28 10° 350° (N) 2,377 6.7 -18.2°
Maximum altitude 18:42:51 88° 81° (E) 813 4.0 -19.1°
Drops below altitude 10° 18:48:17 10° 171° (S) 2,409 6.5 -20.1°
Sets 18:50:42 0° 171° (S) 3,352 7.2 -20.6°
